Time,TemperatureF,DewpointF,PressureIn,WindDirection,WindDirectionDegrees,WindSpeedMPH,WindSpeedGustMPH,Humidity,HourlyPrecipIn,Conditions,Clouds,dailyrainin,SoftwareType,DateUTC
2013-03-09 00:00:00,35.8,13.8,30.18,North,357,0.0,0.0,40,0.00,,---,0.20,VWS V14.01,2013-03-09 05:00:00,
2013-03-09 00:05:00,35.4,13.5,30.18,NNW,330,0.0,0.0,40,0.00,,---,0.00,VWS V14.01,2013-03-09 05:05:00,
2013-03-09 00:10:00,35.4,13.5,30.18,NNW,330,0.0,0.0,40,0.00,,---,0.00,VWS V14.01,2013-03-09 05:10:00,
2013-03-09 00:15:00,35.4,13.5,30.18,NNW,335,0.0,0.0,40,0.00,,---,0.00,VWS V14.01,2013-03-09 05:15:00,
2013-03-09 00:20:00,35.6,13.7,30.18,NW,323,0.0,0.0,40,0.00,,---,0.00,VWS V14.01,2013-03-09 05:20:00,
2013-03-09 00:25:00,35.2,13.4,30.18,NNW,337,0.0,0.0,40,0.00,,---,0.00,VWS V14.01,2013-03-09 05:25:00,
2013-03-09 00:30:00,35.4,13.5,30.18,WNW,301,0.0,0.0,40,0.00,,---,0.00,VWS V14.01,2013-03-09 05:30:00,
2013-03-09 00:35:00,35.4,13.5,30.18,North,353,0.0,0.0,40,0.00,,---,0.00,VWS V14.01,2013-03-09 05:35:00,
2013-03-09 00:40:00,35.2,13.4,30.18,NW,312,0.0,0.0,40,0.00,,---,0.00,VWS V14.01,2013-03-09 05:40:00,
2013-03-09 00:45:00,35.2,13.4,30.18,WNW,283,0.0,0.0,40,0.00,,---,0.00,VWS V14.01,2013-03-09 05:45:00,
2013-03-09 00:50:00,35.1,13.2,30.18,NE,45,0.0,0.0,40,0.00,,---,0.00,VWS V14.01,2013-03-09 05:50:00,
2013-03-09 00:55:00,35.2,13.4,30.18,NNW,327,0.0,0.0,40,0.00,,---,0.00,VWS V14.01,2013-03-09 05:55:00,
2013-03-09 01:00:00,35.1,13.2,30.18,North,353,0.0,0.0,40,0.00,,---,0.00,VWS V14.01,2013-03-09 06:00:00,
2013-03-09 01:05:00,35.1,13.2,30.18,NNW,327,0.0,0.0,40,0.00,,---,0.00,VWS V14.01,2013-03-09 06:05:00,
2013-03-09 01:10:00,34.9,13.0,30.18,NNW,339,0.0,0.0,40,0.00,,---,0.00,VWS V14.01,2013-03-09 06:10:00,
2013-03-09 01:15:00,34.9,13.0,30.18,WNW,284,0.0,0.0,40,0.00,,---,0.00,VWS V14.01,2013-03-09 06:15:00,
2013-03-09 01:20:00,35.1,13.2,30.18,North,353,0.0,0.0,40,0.00,,---,0.00,VWS V14.01,2013-03-09 06:20:00,
2013-03-09 01:25:00,34.7,12.9,30.18,North,0,0.0,0.0,40,0.00,,---,0.00,VWS V14.01,2013-03-09 06:25:00,
2013-03-09 01:30:00,34.7,12.9,30.18,NW,313,0.0,0.0,40,0.00,,---,0.00,VWS V14.01,2013-03-09 06:30:00,
2013-03-09 01:35:00,34.5,12.7,30.18,NNW,342,0.0,0.0,40,0.00,,---,0.00,VWS V14.01,2013-03-09 06:35:00,
2013-03-09 01:40:00,34.9,13.0,30.18,NW,313,0.0,0.0,40,0.00,,---,0.00,VWS V14.01,2013-03-09 06:40:00,
2013-03-09 01:45:00,34.5,12.7,30.18,NW,312,0.0,0.0,40,0.00,,---,0.00,VWS V14.01,2013-03-09 06:45:00,
2013-03-09 01:50:00,34.7,12.9,30.18,North,357,0.0,0.0,40,0.00,,---,0.00,VWS V14.01,2013-03-09 06:50:00,
2013-03-09 01:55:00,34.7,12.9,30.18,WNW,300,0.0,0.0,40,0.00,,---,0.00,VWS V14.01,2013-03-09 06:55:00,
2013-03-09 02:00:00,34.5,12.7,30.18,NNW,341,0.0,0.0,40,0.00,,---,0.00,VWS V14.01,2013-03-09 07:00:00,
2013-03-09 02:05:00,34.2,12.4,30.18,North,350,0.0,0.0,40,0.00,,---,0.00,VWS V14.01,2013-03-09 07:05:00,
2013-03-09 02:10:00,34.0,12.2,30.15,NNE,25,0.0,0.0,40,0.00,,---,0.00,VWS V14.01,2013-03-09 07:10:00,
2013-03-09 02:15:00,34.0,12.2,30.15,NNW,342,0.0,0.0,40,0.00,,---,0.00,VWS V14.01,2013-03-09 07:15:00,
2013-03-09 02:20:00,34.3,12.5,30.15,NW,313,0.0,0.0,40,0.00,,---,0.00,VWS V14.01,2013-03-09 07:20:00,
2013-03-09 02:25:00,34.3,12.5,30.15,North,0,0.0,0.0,40,0.00,,---,0.00,VWS V14.01,2013-03-09 07:25:00,
2013-03-09 02:30:00,34.2,12.4,30.15,NNE,17,0.0,0.0,40,0.00,,---,0.00,VWS V14.01,2013-03-09 07:30:00,
2013-03-09 02:35:00,34.2,12.4,30.15,NW,317,0.0,0.0,40,0.00,,---,0.00,VWS V14.01,2013-03-09 07:35:00,
2013-03-09 02:40:00,34.0,12.2,30.15,NW,314,0.0,0.0,40,0.00,,---,0.00,VWS V14.01,2013-03-09 07:40:00,
2013-03-09 02:45:00,34.0,12.2,30.15,North,357,0.0,0.0,40,0.00,,---,0.00,VWS V14.01,2013-03-09 07:45:00,
2013-03-09 02:50:00,34.0,12.2,30.15,NW,324,0.0,0.0,40,0.00,,---,0.00,VWS V14.01,2013-03-09 07:50:00,
2013-03-09 02:55:00,33.8,12.1,30.15,North,10,0.0,0.0,40,0.00,,---,0.00,VWS V14.01,2013-03-09 07:55:00,
2013-03-09 03:00:00,33.6,11.9,30.15,North,1,0.0,0.0,40,0.00,,---,0.00,VWS V14.01,2013-03-09 08:00:00,
2013-03-09 03:05:00,33.6,11.9,30.15,WNW,289,0.0,0.0,40,0.00,,---,0.00,VWS V14.01,2013-03-09 08:05:00,
2013-03-09 03:10:00,33.4,11.7,30.15,NNE,24,0.0,0.0,40,0.00,,---,0.00,VWS V14.01,2013-03-09 08:10:00,
2013-03-09 03:15:00,33.3,11.6,30.15,North,357,0.0,0.0,40,0.00,,---,0.00,VWS V14.01,2013-03-09 08:15:00,
2013-03-09 03:20:00,33.4,11.7,30.15,North,357,0.0,0.0,40,0.00,,---,0.00,VWS V14.01,2013-03-09 08:20:00,
2013-03-09 03:25:00,33.3,11.6,30.15,North,3,0.0,0.0,40,0.00,,---,0.00,VWS V14.01,2013-03-09 08:25:00,
2013-03-09 03:30:00,33.3,11.6,30.15,North,350,0.0,0.0,40,0.00,,---,0.00,VWS V14.01,2013-03-09 08:30:00,
2013-03-09 03:35:00,33.6,11.9,30.15,North,357,0.0,0.0,40,0.00,,---,0.00,VWS V14.01,2013-03-09 08:35:00,
2013-03-09 03:40:00,33.4,11.7,30.15,NNE,19,0.0,0.0,40,0.00,,---,0.00,VWS V14.01,2013-03-09 08:40:00,
2013-03-09 03:45:00,33.3,11.6,30.15,North,353,0.0,0.0,40,0.00,,---,0.00,VWS V14.01,2013-03-09 08:45:00,
2013-03-09 03:50:00,33.4,11.7,30.15,NW,312,0.0,0.0,40,0.00,,---,0.00,VWS V14.01,2013-03-09 08:50:00,
2013-03-09 03:55:00,33.6,11.9,30.15,WNW,299,0.0,0.0,40,0.00,,---,0.00,VWS V14.01,2013-03-09 08:55:00,
2013-03-09 04:00:00,33.4,11.7,30.15,NNW,340,0.0,0.0,40,0.00,,---,0.00,VWS V14.01,2013-03-09 09:00:00,
2013-03-09 04:05:00,33.4,11.7,30.15,NNW,329,0.0,0.0,40,0.00,,---,0.00,VWS V14.01,2013-03-09 09:05:00,
2013-03-09 04:10:00,33.3,11.6,30.15,NW,309,0.0,0.0,40,0.00,,---,0.00,VWS V14.01,2013-03-09 09:10:00,
2013-03-09 04:15:00,33.3,11.6,30.15,NNE,15,0.0,0.0,40,0.00,,---,0.00,VWS V14.01,2013-03-09 09:15:00,
2013-03-09 04:20:00,33.4,11.7,30.15,NNW,329,0.0,0.0,40,0.00,,---,0.00,VWS V14.01,2013-03-09 09:20:00,
2013-03-09 04:25:00,33.4,11.7,30.18,NNW,337,0.0,0.0,40,0.00,,---,0.00,VWS V14.01,2013-03-09 09:25:00,
2013-03-09 04:30:00,33.1,11.4,30.18,North,0,0.0,0.0,40,0.00,,---,0.00,VWS V14.01,2013-03-09 09:30:00,
2013-03-09 04:35:00,32.7,11.1,30.18,NW,311,0.0,0.0,40,0.00,,---,0.00,VWS V14.01,2013-03-09 09:35:00,
2013-03-09 04:40:00,32.9,11.2,30.18,NNE,32,0.0,0.0,40,0.00,,---,0.00,VWS V14.01,2013-03-09 09:40:00,
2013-03-09 04:45:00,32.7,11.1,30.18,NNW,340,0.0,0.0,40,0.00,,---,0.00,VWS V14.01,2013-03-09 09:45:00,
2013-03-09 04:50:00,32.5,10.9,30.18,NE,34,0.0,0.0,40,0.00,,---,0.00,VWS V14.01,2013-03-09 09:50:00,
2013-03-09 04:55:00,32.4,10.8,30.18,North,353,0.0,0.0,40,0.00,,---,0.00,VWS V14.01,2013-03-09 09:55:00,
2013-03-09 05:00:00,32.2,10.6,30.18,NNW,334,0.0,0.0,40,0.00,,---,0.00,VWS V14.01,2013-03-09 10:00:00,
2013-03-09 05:05:00,32.2,10.6,30.18,NE,38,0.0,0.0,40,0.00,,---,0.00,VWS V14.01,2013-03-09 10:05:00,
2013-03-09 05:10:00,32.2,10.6,30.18,NNW,328,0.0,0.0,40,0.00,,---,0.00,VWS V14.01,2013-03-09 10:10:00,
2013-03-09 05:15:00,32.0,10.4,30.18,North,353,0.0,0.0,40,0.00,,---,0.00,VWS V14.01,2013-03-09 10:15:00,
2013-03-09 05:20:00,32.0,10.4,30.18,North,353,0.0,0.0,40,0.00,,---,0.00,VWS V14.01,2013-03-09 10:20:00,
2013-03-09 05:25:00,32.2,10.6,30.21,NNW,345,0.0,0.0,40,0.00,,---,0.00,VWS V14.01,2013-03-09 10:25:00,
2013-03-09 05:30:00,32.4,10.8,30.21,North,353,0.0,0.0,40,0.00,,---,0.00,VWS V14.01,2013-03-09 10:30:00,
2013-03-09 05:34:00,32.5,10.9,30.21,NNW,343,0.0,0.0,40,0.00,,---,0.00,VWS V14.01,2013-03-09 10:34:00,
2013-03-09 05:39:00,32.5,10.9,30.21,NNE,15,0.0,0.0,40,0.00,,---,0.00,VWS V14.01,2013-03-09 10:39:00,
2013-03-09 05:44:00,32.5,10.9,30.21,North,349,0.0,0.0,40,0.00,,---,0.00,VWS V14.01,2013-03-09 10:44:00,
2013-03-09 05:49:00,32.5,10.9,30.21,NNW,337,0.0,0.0,40,0.00,,---,0.00,VWS V14.01,2013-03-09 10:49:00,
2013-03-09 05:54:00,32.5,10.9,30.21,NNW,342,0.0,0.0,40,0.00,,---,0.00,VWS V14.01,2013-03-09 10:54:00,
2013-03-09 05:59:00,32.4,10.8,30.21,NW,313,0.0,0.0,40,0.00,,---,0.00,VWS V14.01,2013-03-09 10:59:00,
2013-03-09 06:04:00,32.4,10.8,30.21,North,0,0.0,0.0,40,0.00,,---,0.00,VWS V14.01,2013-03-09 11:04:00,
2013-03-09 06:09:00,32.4,10.8,30.21,NNW,342,0.0,0.0,40,0.00,,---,0.00,VWS V14.01,2013-03-09 11:09:00,
2013-03-09 06:14:00,32.5,10.9,30.21,NNE,15,0.0,0.0,40,0.00,,---,0.00,VWS V14.01,2013-03-09 11:14:00,
2013-03-09 06:19:00,32.5,10.9,30.21,NW,318,0.0,0.0,40,0.00,,---,0.00,VWS V14.01,2013-03-09 11:19:00,
2013-03-09 06:24:00,32.2,10.6,30.21,NNW,343,0.0,0.0,40,0.00,,---,0.00,VWS V14.01,2013-03-09 11:24:00,
2013-03-09 06:29:00,32.2,10.6,30.21,WNW,292,0.0,0.0,40,0.00,,---,0.00,VWS V14.01,2013-03-09 11:29:00,
2013-03-09 06:34:00,32.0,10.4,30.21,North,0,0.0,0.0,40,0.00,,---,0.00,VWS V14.01,2013-03-09 11:34:00,
2013-03-09 06:39:00,31.8,10.3,30.21,NW,312,0.0,0.0,40,0.00,,---,0.00,VWS V14.01,2013-03-09 11:39:00,
2013-03-09 06:44:00,31.8,10.3,30.21,North,353,0.0,0.0,40,0.00,,---,0.00,VWS V14.01,2013-03-09 11:44:00,
2013-03-09 06:49:00,32.5,10.9,30.21,NNW,339,0.0,0.0,40,0.00,,---,0.00,VWS V14.01,2013-03-09 11:49:00,
2013-03-09 06:54:00,32.9,11.2,30.21,North,350,0.0,0.0,40,0.00,,---,0.00,VWS V14.01,2013-03-09 11:54:00,
2013-03-09 06:59:00,33.1,11.4,30.21,WNW,300,0.0,0.0,40,0.00,,---,0.00,VWS V14.01,2013-03-09 11:59:00,
2013-03-09 07:04:00,33.1,11.4,30.21,North,353,0.0,0.0,40,0.00,,---,0.00,VWS V14.01,2013-03-09 12:04:00,
2013-03-09 07:09:00,33.6,11.9,30.21,North,350,0.0,0.0,40,0.00,,---,0.00,VWS V14.01,2013-03-09 12:09:00,
2013-03-09 07:14:00,33.8,12.1,30.24,West,280,0.0,0.0,40,0.00,,---,0.00,VWS V14.01,2013-03-09 12:14:00,
2013-03-09 07:19:00,34.2,12.4,30.24,NW,311,0.0,0.0,40,0.00,,---,0.00,VWS V14.01,2013-03-09 12:19:00,
2013-03-09 07:24:00,34.2,12.4,30.21,NW,312,0.0,0.0,40,0.00,,---,0.00,VWS V14.01,2013-03-09 12:24:00,
2013-03-09 07:29:00,34.5,12.7,30.21,North,0,0.0,0.0,40,0.00,,---,0.00,VWS V14.01,2013-03-09 12:29:00,
2013-03-09 07:34:00,34.9,13.0,30.21,North,353,0.0,0.0,40,0.00,,---,0.00,VWS V14.01,2013-03-09 12:34:00,
2013-03-09 07:39:00,35.1,13.2,30.21,NNW,342,0.0,0.0,40,0.00,,---,0.00,VWS V14.01,2013-03-09 12:39:00,
2013-03-09 07:44:00,35.4,13.5,30.21,North,353,0.0,0.0,40,0.00,,---,0.00,VWS V14.01,2013-03-09 12:44:00,
2013-03-09 07:49:00,35.6,13.7,30.21,North,353,0.0,0.0,40,0.00,,---,0.00,VWS V14.01,2013-03-09 12:49:00,
2013-03-09 07:54:00,35.8,13.8,30.21,NNW,333,0.0,0.0,40,0.00,,---,0.00,VWS V14.01,2013-03-09 12:54:00,
2013-03-09 07:59:00,36.1,14.2,30.21,NNE,13,0.0,0.0,40,0.00,,---,0.00,VWS V14.01,2013-03-09 12:59:00,
2013-03-09 08:04:00,36.3,14.3,30.21,West,276,0.0,0.0,40,0.00,,---,0.00,VWS V14.01,2013-03-09 13:04:00,
2013-03-09 08:09:00,36.5,14.5,30.24,North,0,0.0,0.0,40,0.00,,---,0.00,VWS V14.01,2013-03-09 13:09:00,
2013-03-09 08:14:00,36.7,14.6,30.24,NNE,18,0.0,0.0,40,0.00,,---,0.00,VWS V14.01,2013-03-09 13:14:00,
2013-03-09 08:19:00,36.9,14.8,30.24,NNW,340,0.0,0.0,40,0.00,,---,0.00,VWS V14.01,2013-03-09 13:19:00,
2013-03-09 08:24:00,37.2,15.1,30.24,NNW,330,0.0,0.0,40,0.00,,---,0.00,VWS V14.01,2013-03-09 13:24:00,
2013-03-09 08:29:00,37.6,14.9,30.24,NNW,331,0.0,0.0,39,0.00,,---,0.00,VWS V14.01,2013-03-09 13:29:00,
2013-03-09 08:34:00,37.9,15.2,30.24,North,0,0.0,0.0,39,0.00,,---,0.00,VWS V14.01,2013-03-09 13:34:00,
2013-03-09 08:39:00,38.1,15.4,30.24,NNE,29,0.0,0.0,39,0.00,,---,0.00,VWS V14.01,2013-03-09 13:39:00,
2013-03-09 08:44:00,38.7,15.9,30.24,NNW,346,0.0,0.0,39,0.00,,---,0.00,VWS V14.01,2013-03-09 13:44:00,
2013-03-09 08:49:00,39.2,16.3,30.24,NW,323,0.0,0.0,39,0.00,,---,0.00,VWS V14.01,2013-03-09 13:49:00,
2013-03-09 08:54:00,39.6,16.7,30.24,NNE,16,0.0,0.0,39,0.00,,---,0.00,VWS V14.01,2013-03-09 13:54:00,
2013-03-09 08:59:00,39.9,17.0,30.24,SW,234,0.0,0.0,39,0.00,,---,0.00,VWS V14.01,2013-03-09 13:59:00,
2013-03-09 09:04:00,40.3,17.3,30.24,NW,309,0.0,0.0,39,0.00,,---,0.00,VWS V14.01,2013-03-09 14:04:00,
2013-03-09 09:09:00,40.6,17.6,30.24,NNW,333,0.0,0.0,39,0.00,,---,0.00,VWS V14.01,2013-03-09 14:09:00,
2013-03-09 09:14:00,40.8,17.8,30.24,North,4,0.0,0.0,39,0.00,,---,0.00,VWS V14.01,2013-03-09 14:14:00,
2013-03-09 09:19:00,40.6,17.6,30.24,WNW,289,0.0,0.0,39,0.00,,---,0.00,VWS V14.01,2013-03-09 14:19:00,
2013-03-09 09:24:00,41.4,17.7,30.24,NNW,332,0.0,0.0,38,0.00,,---,0.00,VWS V14.01,2013-03-09 14:24:00,
2013-03-09 09:29:00,42.1,18.3,30.24,North,0,0.0,0.0,38,0.00,,---,0.00,VWS V14.01,2013-03-09 14:29:00,
2013-03-09 09:34:00,42.4,18.6,30.24,WNW,292,0.0,0.0,38,0.00,,---,0.00,VWS V14.01,2013-03-09 14:34:00,
2013-03-09 09:39:00,43.0,19.1,30.24,North,357,2.7,2.7,38,0.00,,---,0.00,VWS V14.01,2013-03-09 14:39:00,
2013-03-09 09:44:00,43.2,19.3,30.24,North,353,2.7,3.6,38,0.00,,---,0.00,VWS V14.01,2013-03-09 14:44:00,
2013-03-09 09:49:00,43.7,19.8,30.24,North,353,0.0,3.1,38,0.00,,---,0.00,VWS V14.01,2013-03-09 14:49:00,
2013-03-09 09:54:00,43.7,19.8,30.24,North,353,5.4,5.4,38,0.00,,---,0.00,VWS V14.01,2013-03-09 14:54:00,
2013-03-09 09:59:00,43.7,19.8,30.24,NNW,337,3.1,9.6,38,0.00,,---,0.00,VWS V14.01,2013-03-09 14:59:00,
2013-03-09 10:04:00,44.4,20.4,30.24,NW,313,3.1,3.1,38,0.00,,---,0.00,VWS V14.01,2013-03-09 15:04:00,
2013-03-09 10:09:00,45.0,20.9,30.24,NW,317,0.0,2.2,38,0.00,,---,0.00,VWS V14.01,2013-03-09 15:09:00,
2013-03-09 10:14:00,44.8,20.7,30.24,North,9,3.6,8.1,38,0.00,,---,0.00,VWS V14.01,2013-03-09 15:14:00,
2013-03-09 10:19:00,45.7,21.5,30.24,NNW,330,3.6,3.6,38,0.00,,---,0.00,VWS V14.01,2013-03-09 15:19:00,
2013-03-09 10:24:00,45.9,21.7,30.24,North,0,4.0,5.8,38,0.00,,---,0.00,VWS V14.01,2013-03-09 15:24:00,
2013-03-09 10:29:00,45.9,21.7,30.24,NNW,337,4.9,7.6,38,0.00,,---,0.00,VWS V14.01,2013-03-09 15:29:00,
2013-03-09 10:34:00,46.2,22.0,30.24,NW,323,6.3,8.7,38,0.00,,---,0.00,VWS V14.01,2013-03-09 15:34:00,
2013-03-09 10:39:00,46.2,22.0,30.24,NNE,26,3.1,3.6,38,0.00,,---,0.00,VWS V14.01,2013-03-09 15:39:00,
2013-03-09 10:44:00,46.6,21.7,30.24,NNW,339,0.0,0.0,37,0.00,,---,0.00,VWS V14.01,2013-03-09 15:44:00,
2013-03-09 10:49:00,46.8,21.9,30.24,NNW,337,4.0,4.0,37,0.00,,---,0.00,VWS V14.01,2013-03-09 15:49:00,
2013-03-09 10:54:00,47.1,22.2,30.24,NNW,329,2.7,4.0,37,0.00,,---,0.00,VWS V14.01,2013-03-09 15:54:00,
2013-03-09 10:59:00,47.7,22.7,30.24,North,0,0.0,2.7,37,0.00,,---,0.00,VWS V14.01,2013-03-09 15:59:00,
2013-03-09 11:04:00,48.2,23.2,30.24,WNW,290,3.6,3.6,37,0.00,,---,0.00,VWS V14.01,2013-03-09 16:04:00,
2013-03-09 11:09:00,48.2,23.2,30.24,NNW,348,2.2,4.0,37,0.00,,---,0.00,VWS V14.01,2013-03-09 16:09:00,
2013-03-09 11:14:00,48.2,23.2,30.24,North,357,3.6,3.6,37,0.00,,---,0.00,VWS V14.01,2013-03-09 16:14:00,
2013-03-09 11:19:00,48.6,23.5,30.24,North,6,5.4,7.6,37,0.00,,---,0.00,VWS V14.01,2013-03-09 16:19:00,
2013-03-09 11:24:00,48.6,23.5,30.24,NW,305,5.8,6.3,37,0.00,,---,0.00,VWS V14.01,2013-03-09 16:24:00,
2013-03-09 11:29:00,48.7,23.6,30.24,North,357,4.0,4.0,37,0.00,,---,0.00,VWS V14.01,2013-03-09 16:29:00,
2013-03-09 11:34:00,49.1,24.0,30.24,NNW,338,4.0,4.0,37,0.00,,---,0.00,VWS V14.01,2013-03-09 16:34:00,
2013-03-09 11:39:00,49.3,24.1,30.24,North,0,5.4,6.3,37,0.00,,---,0.00,VWS V14.01,2013-03-09 16:39:00,
2013-03-09 11:44:00,49.3,24.1,30.24,NNE,12,4.0,5.4,37,0.00,,---,0.00,VWS V14.01,2013-03-09 16:44:00,
2013-03-09 11:49:00,49.8,24.6,30.24,WNW,297,4.0,4.0,37,0.00,,---,0.00,VWS V14.01,2013-03-09 16:49:00,
2013-03-09 11:54:00,50.2,24.3,30.24,North,9,4.0,7.6,36,0.00,,---,0.00,VWS V14.01,2013-03-09 16:54:00,
2013-03-09 11:59:00,50.4,24.4,30.24,North,10,4.0,4.0,36,0.00,,---,0.00,VWS V14.01,2013-03-09 16:59:00,
2013-03-09 12:04:00,50.5,24.6,30.24,North,353,3.6,4.9,36,0.00,,---,0.00,VWS V14.01,2013-03-09 17:04:00,
2013-03-09 12:09:00,50.9,24.9,30.24,NE,38,3.1,3.6,36,0.00,,---,0.00,VWS V14.01,2013-03-09 17:09:00,
2013-03-09 12:14:00,51.6,25.6,30.24,North,8,2.7,3.1,36,0.00,,---,0.00,VWS V14.01,2013-03-09 17:14:00,
2013-03-09 12:19:00,51.8,25.7,30.24,West,259,0.0,0.0,36,0.00,,---,0.00,VWS V14.01,2013-03-09 17:19:00,
2013-03-09 12:24:00,52.0,25.9,30.24,NNW,337,0.0,0.0,36,0.00,,---,0.00,VWS V14.01,2013-03-09 17:24:00,
2013-03-09 12:29:00,52.2,26.0,30.21,NNW,338,4.0,5.8,36,0.00,,---,0.00,VWS V14.01,2013-03-09 17:29:00,
2013-03-09 12:34:00,52.3,26.2,30.21,North,357,3.6,3.6,36,0.00,,---,0.00,VWS V14.01,2013-03-09 17:34:00,
2013-03-09 12:39:00,52.5,26.4,30.21,NE,48,4.0,4.0,36,0.00,,---,0.00,VWS V14.01,2013-03-09 17:39:00,
2013-03-09 12:44:00,52.9,26.7,30.21,WNW,300,2.7,3.1,36,0.00,,---,0.00,VWS V14.01,2013-03-09 17:44:00,
2013-03-09 12:49:00,53.1,26.8,30.21,North,357,3.6,3.6,36,0.00,,---,0.00,VWS V14.01,2013-03-09 17:49:00,
2013-03-09 12:54:00,53.2,27.0,30.21,NNW,345,0.0,4.0,36,0.00,,---,0.00,VWS V14.01,2013-03-09 17:54:00,
2013-03-09 12:59:00,53.2,27.0,30.21,NW,322,5.8,5.8,36,0.00,,---,0.00,VWS V14.01,2013-03-09 17:59:00,
2013-03-09 13:04:00,53.4,27.1,30.21,North,0,3.6,5.4,36,0.00,,---,0.00,VWS V14.01,2013-03-09 18:04:00,
2013-03-09 13:09:00,53.4,27.1,30.21,North,357,2.7,2.7,36,0.00,,---,0.00,VWS V14.01,2013-03-09 18:09:00,
2013-03-09 13:14:00,53.6,27.3,30.18,North,0,4.9,4.9,36,0.00,,---,0.00,VWS V14.01,2013-03-09 18:14:00,
2013-03-09 13:19:00,54.1,27.8,30.18,NW,309,2.7,4.0,36,0.00,,---,0.00,VWS V14.01,2013-03-09 18:19:00,
2013-03-09 13:24:00,54.1,27.8,30.18,NE,39,0.0,0.0,36,0.00,,---,0.00,VWS V14.01,2013-03-09 18:24:00,
2013-03-09 13:29:00,54.3,28.0,30.18,North,0,6.3,6.3,36,0.00,,---,0.00,VWS V14.01,2013-03-09 18:29:00,
2013-03-09 13:34:00,54.3,28.0,30.18,NE,43,2.7,3.6,36,0.00,,---,0.00,VWS V14.01,2013-03-09 18:34:00,
2013-03-09 13:39:00,54.1,27.8,30.18,North,353,2.2,3.1,36,0.00,,---,0.00,VWS V14.01,2013-03-09 18:39:00,
2013-03-09 13:44:00,54.3,28.0,30.18,NE,53,2.2,4.0,36,0.00,,---,0.00,VWS V14.01,2013-03-09 18:44:00,
2013-03-09 13:49:00,54.5,28.1,30.18,NW,305,2.2,3.6,36,0.00,,---,0.00,VWS V14.01,2013-03-09 18:49:00,
2013-03-09 13:54:00,54.7,28.3,30.18,SW,236,2.2,2.2,36,0.00,,---,0.00,VWS V14.01,2013-03-09 18:54:00,
2013-03-09 13:59:00,55.0,28.6,30.18,NE,43,0.0,4.0,36,0.00,,---,0.00,VWS V14.01,2013-03-09 18:59:00,
2013-03-09 14:04:00,55.4,28.2,30.18,NNE,28,0.0,0.0,35,0.00,,---,0.00,VWS V14.01,2013-03-09 19:04:00,
2013-03-09 14:09:00,55.2,28.8,30.18,ESE,102,3.6,4.0,36,0.00,,---,0.00,VWS V14.01,2013-03-09 19:09:00,
2013-03-09 14:14:00,55.2,28.8,30.18,North,353,0.0,0.0,36,0.00,,---,0.00,VWS V14.01,2013-03-09 19:14:00,
2013-03-09 14:19:00,55.4,28.2,30.18,North,357,0.0,0.0,35,0.00,,---,0.00,VWS V14.01,2013-03-09 19:19:00,
2013-03-09 14:24:00,55.4,28.2,30.18,WNW,283,0.0,0.0,35,0.00,,---,0.00,VWS V14.01,2013-03-09 19:24:00,
2013-03-09 14:29:00,55.2,28.8,30.18,North,7,2.7,2.7,36,0.00,,---,0.00,VWS V14.01,2013-03-09 19:29:00,
2013-03-09 14:34:00,55.8,28.5,30.18,ENE,59,2.7,3.1,35,0.00,,---,0.00,VWS V14.01,2013-03-09 19:34:00,
2013-03-09 14:39:00,56.1,28.9,30.18,NW,320,2.7,2.7,35,0.00,,---,0.00,VWS V14.01,2013-03-09 19:39:00,
2013-03-09 14:44:00,56.3,29.0,30.15,NNE,27,2.2,2.2,35,0.00,,---,0.00,VWS V14.01,2013-03-09 19:44:00,
2013-03-09 14:49:00,56.1,28.9,30.15,NNE,32,3.1,4.0,35,0.00,,---,0.00,VWS V14.01,2013-03-09 19:49:00,
2013-03-09 14:54:00,56.1,28.9,30.15,North,8,4.9,4.9,35,0.00,,---,0.00,VWS V14.01,2013-03-09 19:54:00,
2013-03-09 14:59:00,56.5,29.2,30.18,NNW,334,4.0,4.0,35,0.00,,---,0.00,VWS V14.01,2013-03-09 19:59:00,
2013-03-09 15:04:00,56.7,29.3,30.18,WNW,295,0.0,5.4,35,0.00,,---,0.00,VWS V14.01,2013-03-09 20:04:00,
2013-03-09 15:09:00,56.8,29.5,30.18,NNE,14,5.8,5.8,35,0.00,,---,0.00,VWS V14.01,2013-03-09 20:09:00,
2013-03-09 15:14:00,56.8,29.5,30.18,NE,40,2.7,3.6,35,0.00,,---,0.00,VWS V14.01,2013-03-09 20:14:00,
2013-03-09 15:19:00,56.8,29.5,30.18,NNE,16,4.5,4.5,35,0.00,,---,0.00,VWS V14.01,2013-03-09 20:19:00,
2013-03-09 15:24:00,56.8,29.5,30.18,NNE,17,4.9,5.4,35,0.00,,---,0.00,VWS V14.01,2013-03-09 20:24:00,
2013-03-09 15:29:00,57.0,29.7,30.18,North,357,4.0,4.9,35,0.00,,---,0.00,VWS V14.01,2013-03-09 20:29:00,
2013-03-09 15:34:00,56.8,29.5,30.18,ENE,70,6.3,6.3,35,0.00,,---,0.00,VWS V14.01,2013-03-09 20:34:00,
2013-03-09 15:39:00,56.8,29.5,30.18,North,353,4.0,4.0,35,0.00,,---,0.00,VWS V14.01,2013-03-09 20:39:00,
2013-03-09 15:44:00,56.8,29.5,30.18,West,280,2.7,2.7,35,0.00,,---,0.00,VWS V14.01,2013-03-09 20:44:00,
2013-03-09 15:49:00,56.8,29.5,30.18,North,7,3.1,4.0,35,0.00,,---,0.00,VWS V14.01,2013-03-09 20:49:00,
2013-03-09 15:54:00,56.8,29.5,30.18,NW,323,3.6,5.8,35,0.00,,---,0.00,VWS V14.01,2013-03-09 20:54:00,
2013-03-09 15:59:00,56.8,29.5,30.18,NE,40,3.1,4.0,35,0.00,,---,0.00,VWS V14.01,2013-03-09 20:59:00,
2013-03-09 16:04:00,57.0,29.7,30.18,NNE,26,5.4,5.4,35,0.00,,---,0.00,VWS V14.01,2013-03-09 21:04:00,
2013-03-09 16:09:00,57.0,29.7,30.18,North,6,0.0,2.2,35,0.00,,---,0.00,VWS V14.01,2013-03-09 21:09:00,
2013-03-09 16:14:00,57.0,29.7,30.18,North,350,4.0,4.0,35,0.00,,---,0.00,VWS V14.01,2013-03-09 21:14:00,
2013-03-09 16:19:00,57.0,29.7,30.18,North,353,3.1,3.6,35,0.00,,---,0.00,VWS V14.01,2013-03-09 21:19:00,
2013-03-09 16:24:00,57.0,29.7,30.18,ENE,65,3.6,3.6,35,0.00,,---,0.00,VWS V14.01,2013-03-09 21:24:00,
2013-03-09 16:29:00,56.8,29.5,30.18,WNW,297,3.1,3.1,35,0.00,,---,0.00,VWS V14.01,2013-03-09 21:29:00,
2013-03-09 16:34:00,56.7,29.3,30.18,North,353,2.2,2.2,35,0.00,,---,0.00,VWS V14.01,2013-03-09 21:34:00,
2013-03-09 16:39:00,56.7,29.3,30.18,North,353,3.6,3.6,35,0.00,,---,0.00,VWS V14.01,2013-03-09 21:39:00,
2013-03-09 16:44:00,56.3,29.0,30.18,NNE,21,3.1,3.6,35,0.00,,---,0.00,VWS V14.01,2013-03-09 21:44:00,
2013-03-09 16:49:00,56.3,29.0,30.18,North,353,2.7,2.7,35,0.00,,---,0.00,VWS V14.01,2013-03-09 21:49:00,
2013-03-09 16:54:00,55.9,28.7,30.18,NNE,15,3.1,3.1,35,0.00,,---,0.00,VWS V14.01,2013-03-09 21:54:00,
2013-03-09 16:59:00,55.8,28.5,30.18,NE,34,0.0,0.0,35,0.00,,---,0.00,VWS V14.01,2013-03-09 21:59:00,
2013-03-09 17:04:00,55.4,28.2,30.18,ENE,62,3.6,3.6,35,0.00,,---,0.00,VWS V14.01,2013-03-09 22:04:00,
2013-03-09 17:09:00,55.2,28.8,30.18,North,0,0.0,0.0,36,0.00,,---,0.00,VWS V14.01,2013-03-09 22:09:00,
2013-03-09 17:14:00,55.2,28.8,30.21,North,353,0.0,0.0,36,0.00,,---,0.00,VWS V14.01,2013-03-09 22:14:00,
2013-03-09 17:19:00,55.0,28.6,30.21,NNW,333,3.1,3.1,36,0.00,,---,0.00,VWS V14.01,2013-03-09 22:19:00,
2013-03-09 17:24:00,54.5,28.1,30.21,North,0,0.0,0.0,36,0.00,,---,0.00,VWS V14.01,2013-03-09 22:24:00,
2013-03-09 17:29:00,54.0,27.6,30.21,North,0,0.0,0.0,36,0.00,,---,0.00,VWS V14.01,2013-03-09 22:29:00,
2013-03-09 17:34:00,53.4,27.1,30.21,NNW,342,0.0,0.0,36,0.00,,---,0.00,VWS V14.01,2013-03-09 22:34:00,
2013-03-09 17:39:00,53.1,26.8,30.21,NNW,343,0.0,0.0,36,0.00,,---,0.00,VWS V14.01,2013-03-09 22:39:00,
2013-03-09 17:44:00,51.6,25.6,30.21,NNW,343,0.0,0.0,36,0.00,,---,0.00,VWS V14.01,2013-03-09 22:44:00,
2013-03-09 17:49:00,50.2,24.3,30.21,NNW,343,0.0,0.0,36,0.00,,---,0.00,VWS V14.01,2013-03-09 22:49:00,
2013-03-09 17:54:00,48.2,23.2,30.21,NNW,343,0.0,0.0,37,0.00,,---,0.00,VWS V14.01,2013-03-09 22:54:00,
2013-03-09 17:59:00,46.6,21.7,30.21,NNW,343,0.0,0.0,37,0.00,,---,0.00,VWS V14.01,2013-03-09 22:59:00,
2013-03-09 18:04:00,45.0,20.9,30.21,NNW,343,0.0,0.0,38,0.00,,---,0.00,VWS V14.01,2013-03-09 23:04:00,
2013-03-09 18:09:00,44.1,20.1,30.21,NNW,343,0.0,0.0,38,0.00,,---,0.00,VWS V14.01,2013-03-09 23:09:00,
2013-03-09 18:14:00,43.5,19.6,30.21,NNW,343,0.0,0.0,38,0.00,,---,0.00,VWS V14.01,2013-03-09 23:14:00,
2013-03-09 18:19:00,42.8,19.0,30.21,NNW,343,0.0,0.0,38,0.00,,---,0.00,VWS V14.01,2013-03-09 23:19:00,
2013-03-09 18:24:00,42.1,18.3,30.21,NNW,343,0.0,0.0,38,0.00,,---,0.00,VWS V14.01,2013-03-09 23:24:00,
2013-03-09 18:29:00,41.2,17.5,30.21,NNW,343,0.0,0.0,38,0.00,,---,0.00,VWS V14.01,2013-03-09 23:29:00,
2013-03-09 18:34:00,40.6,17.6,30.21,NNW,343,0.0,0.0,39,0.00,,---,0.00,VWS V14.01,2013-03-09 23:34:00,
2013-03-09 18:39:00,39.9,17.0,30.21,NNW,343,0.0,0.0,39,0.00,,---,0.00,VWS V14.01,2013-03-09 23:39:00,
2013-03-09 18:44:00,39.6,16.7,30.21,NNW,343,0.0,0.0,39,0.00,,---,0.00,VWS V14.01,2013-03-09 23:44:00,
2013-03-09 18:49:00,39.0,16.2,30.21,NNW,343,0.0,0.0,39,0.00,,---,0.00,VWS V14.01,2013-03-09 23:49:00,
2013-03-09 18:54:00,38.8,16.0,30.21,NNW,346,0.0,0.0,39,0.00,,---,0.00,VWS V14.01,2013-03-09 23:54:00,
2013-03-09 18:59:00,39.4,16.5,30.21,North,353,0.0,0.0,39,0.00,,---,0.00,VWS V14.01,2013-03-09 23:59:00,
2013-03-09 19:04:00,39.2,16.3,30.21,North,353,0.0,0.0,39,0.00,,---,0.00,VWS V14.01,2013-03-10 00:04:00,
2013-03-09 19:09:00,38.5,15.7,30.21,North,353,0.0,0.0,39,0.00,,---,0.00,VWS V14.01,2013-03-10 00:09:00,
2013-03-09 19:14:00,37.8,15.0,30.24,North,353,0.0,0.0,39,0.00,,---,0.00,VWS V14.01,2013-03-10 00:14:00,
2013-03-09 19:19:00,37.4,14.7,30.24,North,353,0.0,0.0,39,0.00,,---,0.00,VWS V14.01,2013-03-10 00:19:00,
2013-03-09 19:24:00,37.2,15.1,30.24,North,353,0.0,0.0,40,0.00,,---,0.00,VWS V14.01,2013-03-10 00:24:00,
2013-03-09 19:29:00,36.9,14.8,30.21,North,353,0.0,0.0,40,0.00,,---,0.00,VWS V14.01,2013-03-10 00:29:00,
2013-03-09 19:34:00,36.3,14.3,30.21,North,353,0.0,0.0,40,0.00,,---,0.00,VWS V14.01,2013-03-10 00:34:00,
2013-03-09 19:39:00,36.0,14.0,30.21,North,353,0.0,0.0,40,0.00,,---,0.00,VWS V14.01,2013-03-10 00:39:00,
2013-03-09 19:44:00,35.6,13.7,30.21,North,353,0.0,0.0,40,0.00,,---,0.00,VWS V14.01,2013-03-10 00:44:00,
2013-03-09 19:49:00,35.4,13.5,30.21,North,353,0.0,0.0,40,0.00,,---,0.00,VWS V14.01,2013-03-10 00:49:00,
2013-03-09 19:54:00,35.4,13.5,30.21,North,353,0.0,0.0,40,0.00,,---,0.00,VWS V14.01,2013-03-10 00:54:00,
2013-03-09 19:59:00,35.2,13.4,30.24,North,353,0.0,0.0,40,0.00,,---,0.00,VWS V14.01,2013-03-10 00:59:00,
2013-03-09 20:04:00,35.1,13.2,30.24,North,353,0.0,0.0,40,0.00,,---,0.00,VWS V14.01,2013-03-10 01:04:00,
2013-03-09 20:09:00,35.1,13.2,30.24,North,353,0.0,0.0,40,0.00,,---,0.00,VWS V14.01,2013-03-10 01:09:00,
2013-03-09 20:14:00,35.1,13.2,30.24,North,353,0.0,0.0,40,0.00,,---,0.00,VWS V14.01,2013-03-10 01:14:00,
2013-03-09 20:19:00,35.1,13.2,30.24,North,353,0.0,0.0,40,0.00,,---,0.00,VWS V14.01,2013-03-10 01:19:00,
2013-03-09 20:24:00,34.9,13.0,30.24,North,353,0.0,0.0,40,0.00,,---,0.00,VWS V14.01,2013-03-10 01:24:00,
2013-03-09 20:29:00,34.7,12.9,30.24,North,353,0.0,0.0,40,0.00,,---,0.00,VWS V14.01,2013-03-10 01:29:00,
2013-03-09 20:34:00,34.5,12.7,30.24,North,353,0.0,0.0,40,0.00,,---,0.00,VWS V14.01,2013-03-10 01:34:00,
2013-03-09 20:39:00,34.3,12.5,30.24,North,353,0.0,0.0,40,0.00,,---,0.00,VWS V14.01,2013-03-10 01:39:00,
2013-03-09 20:44:00,34.2,12.4,30.24,North,353,0.0,0.0,40,0.00,,---,0.00,VWS V14.01,2013-03-10 01:44:00,
2013-03-09 20:49:00,34.2,12.4,30.24,North,353,0.0,0.0,40,0.00,,---,0.00,VWS V14.01,2013-03-10 01:49:00,
2013-03-09 20:54:00,34.5,12.7,30.24,North,353,0.0,0.0,40,0.00,,---,0.00,VWS V14.01,2013-03-10 01:54:00,
2013-03-09 20:59:00,34.5,12.7,30.24,North,353,0.0,0.0,40,0.00,,---,0.00,VWS V14.01,2013-03-10 01:59:00,
2013-03-09 21:04:00,34.3,12.5,30.24,North,353,0.0,0.0,40,0.00,,---,0.00,VWS V14.01,2013-03-10 02:04:00,
2013-03-09 21:09:00,34.0,12.2,30.24,North,353,0.0,0.0,40,0.00,,---,0.00,VWS V14.01,2013-03-10 02:09:00,
2013-03-09 21:14:00,33.6,11.9,30.24,North,353,0.0,0.0,40,0.00,,---,0.00,VWS V14.01,2013-03-10 02:14:00,
2013-03-09 21:19:00,33.3,11.6,30.24,North,353,0.0,0.0,40,0.00,,---,0.00,VWS V14.01,2013-03-10 02:19:00,
2013-03-09 21:24:00,33.4,11.7,30.24,North,353,0.0,0.0,40,0.00,,---,0.00,VWS V14.01,2013-03-10 02:24:00,
2013-03-09 21:29:00,33.6,11.9,30.24,North,353,0.0,0.0,40,0.00,,---,0.00,VWS V14.01,2013-03-10 02:29:00,
2013-03-09 21:34:00,33.3,11.6,30.24,North,353,0.0,0.0,40,0.00,,---,0.00,VWS V14.01,2013-03-10 02:34:00,
2013-03-09 21:39:00,33.1,11.4,30.24,North,353,0.0,0.0,40,0.00,,---,0.00,VWS V14.01,2013-03-10 02:39:00,
2013-03-09 21:44:00,33.1,11.4,30.24,North,353,0.0,0.0,40,0.00,,---,0.00,VWS V14.01,2013-03-10 02:44:00,
2013-03-09 21:49:00,33.1,11.4,30.24,North,353,0.0,0.0,40,0.00,,---,0.00,VWS V14.01,2013-03-10 02:49:00,
2013-03-09 21:54:00,32.9,11.2,30.24,North,353,0.0,0.0,40,0.00,,---,0.00,VWS V14.01,2013-03-10 02:54:00,
2013-03-09 21:59:00,32.7,11.1,30.27,North,353,0.0,0.0,40,0.00,,---,0.00,VWS V14.01,2013-03-10 02:59:00,
2013-03-09 22:04:00,32.7,11.1,30.27,North,353,0.0,0.0,40,0.00,,---,0.00,VWS V14.01,2013-03-10 03:04:00,
2013-03-09 22:09:00,32.5,11.5,30.27,North,353,0.0,0.0,41,0.00,,---,0.00,VWS V14.01,2013-03-10 03:09:00,
2013-03-09 22:14:00,32.5,10.9,30.27,North,353,0.0,0.0,40,0.00,,---,0.00,VWS V14.01,2013-03-10 03:14:00,
2013-03-09 22:19:00,32.7,11.1,30.27,North,353,0.0,0.0,40,0.00,,---,0.00,VWS V14.01,2013-03-10 03:19:00,
2013-03-09 22:24:00,32.5,11.5,30.27,North,353,0.0,0.0,41,0.00,,---,0.00,VWS V14.01,2013-03-10 03:24:00,
2013-03-09 22:29:00,32.2,11.1,30.27,North,353,0.0,0.0,41,0.00,,---,0.00,VWS V14.01,2013-03-10 03:29:00,
2013-03-09 22:34:00,32.4,10.8,30.27,North,353,0.0,0.0,40,0.00,,---,0.00,VWS V14.01,2013-03-10 03:34:00,
2013-03-09 22:39:00,32.5,10.9,30.27,North,353,0.0,0.0,40,0.00,,---,0.00,VWS V14.01,2013-03-10 03:39:00,
2013-03-09 22:44:00,32.2,11.1,30.27,North,353,0.0,0.0,41,0.00,,---,0.00,VWS V14.01,2013-03-10 03:44:00,
2013-03-09 22:49:00,31.6,10.6,30.27,North,353,0.0,0.0,41,0.00,,---,0.00,VWS V14.01,2013-03-10 03:49:00,
2013-03-09 22:54:00,31.5,10.5,30.27,North,353,0.0,0.0,41,0.00,,---,0.00,VWS V14.01,2013-03-10 03:54:00,
2013-03-09 22:59:00,31.1,10.2,30.27,North,353,0.0,0.0,41,0.00,,---,0.00,VWS V14.01,2013-03-10 03:59:00,
2013-03-09 23:04:00,31.1,10.2,30.27,North,353,0.0,0.0,41,0.00,,---,0.00,VWS V14.01,2013-03-10 04:04:00,
2013-03-09 23:09:00,31.1,10.2,30.27,North,353,0.0,0.0,41,0.00,,---,0.00,VWS V14.01,2013-03-10 04:09:00,
2013-03-09 23:14:00,31.3,10.3,30.27,North,353,0.0,0.0,41,0.00,,---,0.00,VWS V14.01,2013-03-10 04:14:00,
2013-03-09 23:19:00,30.9,10.0,30.27,North,353,0.0,0.0,41,0.00,,---,0.00,VWS V14.01,2013-03-10 04:19:00,
2013-03-09 23:24:00,30.9,10.0,30.27,North,353,0.0,0.0,41,0.00,,---,0.00,VWS V14.01,2013-03-10 04:24:00,
2013-03-09 23:29:00,30.7,9.8,30.27,North,353,0.0,0.0,41,0.00,,---,0.00,VWS V14.01,2013-03-10 04:29:00,
2013-03-09 23:34:00,30.7,9.8,30.27,North,353,0.0,0.0,41,0.00,,---,0.00,VWS V14.01,2013-03-10 04:34:00,
2013-03-09 23:39:00,30.9,10.0,30.27,North,353,0.0,0.0,41,0.00,,---,0.00,VWS V14.01,2013-03-10 04:39:00,
2013-03-09 23:44:00,30.9,10.0,30.27,North,353,0.0,0.0,41,0.00,,---,0.00,VWS V14.01,2013-03-10 04:44:00,
2013-03-09 23:49:00,30.6,9.7,30.27,North,353,0.0,0.0,41,0.00,,---,0.00,VWS V14.01,2013-03-10 04:49:00,
2013-03-09 23:54:00,30.4,9.5,30.27,North,353,0.0,0.0,41,0.00,,---,0.00,VWS V14.01,2013-03-10 04:54:00,
2013-03-09 23:59:00,30.2,9.4,30.27,North,353,0.0,0.0,41,0.00,,---,0.00,VWS V14.01,2013-03-10 04:59:00,